Date String (YYYY-MM-DD hh:mm:ss) UTC,Instrument flags,absolute air pressure of the measurement (hPa),sample flow rate (lpm),inlet stack bypass flow (lpm),air temperature of the measurement (°C),ambient temperature measured by the external sensor (°C),aerosol sample conditioner tube jacket temperature (°C),OPC LED temperature (°C),internal box temperature (°C),relative humidity of the measurement (%),span deviation,mass concentration of particles derived from Lorenz-Mie calculation of OPC scattering (μg/m³),mass concentration of particles derived from Lorenz-Mie calculation of OPC scattering (μg/m³),mass concentration of particles derived from Lorenz-Mie calculation of OPC scattering (μg/m³)
DateTimeUTC,F1_M11,P_M11,Q1_M11,Q2_M11,T1_M11,T2_M11,T3_M11,T4_M11,T5_M11,U1_M11,ZSPAN_M11,X2_M11,X0_M11,X1_M11
2024-05-05 06:00:00,SystemResetWarning,0824.8,5.00,000.00,025.2,024.5,000.0,033.7,027.0,020.9,0000.0,0004.19,0010.94,0003.19
2024-05-05 06:01:00,SystemResetWarning,0824.8,5.00,000.00,025.2,024.5,000.0,033.7,027.0,020.9,0000.0,0004.21,0011.98,0003.20
2024-05-05 06:02:00,SystemResetWarning,0824.8,4.99,000.00,025.2,024.5,000.0,033.7,027.0,020.9,0000.0,0004.20,0012.04,0003.20
2024-05-05 06:03:00,SystemResetWarning,0824.8,5.00,000.00,025.2,024.5,000.0,033.7,027.0,020.9,0000.0,0004.19,0011.60,0003.20
2024-05-05 06:04:00,SystemResetWarning,0824.8,5.00,000.00,025.2,024.4,000.0,033.7,027.0,020.9,0000.0,0004.22,0012.25,0003.20
2024-05-05 06:05:00,SystemResetWarning,0824.8,5.00,000.00,025.2,024.4,000.0,033.7,027.0,020.9,0000.0,0004.21,0012.33,0003.21
2024-05-05 06:06:00,SystemResetWarning,0824.7,5.00,000.00,025.2,024.4,000.0,033.7,026.9,020.8,0000.0,0004.19,0013.24,0003.20
2024-05-05 06:07:00,SystemResetWarning,0824.7,5.00,000.00,025.2,024.4,000.0,033.7,026.9,020.8,0000.0,0004.20,0013.07,0003.19
2024-05-05 06:08:00,SystemResetWarning,0824.7,5.01,000.00,025.2,024.4,000.0,033.7,026.9,020.9,0000.0,0004.18,0013.15,0003.19
2024-05-05 06:09:00,SystemResetWarning,0824.7,5.01,000.00,025.2,024.4,000.0,033.7,026.9,020.9,0000.0,0004.17,0013.21,0003.20
2024-05-05 06:10:00,SystemResetWarning,0824.7,5.00,000.00,025.1,024.4,000.0,033.7,026.8,020.9,0000.0,0004.17,0013.21,0003.21
2024-05-05 06:11:00,SystemResetWarning,0824.8,4.99,000.00,025.1,024.4,000.0,033.7,026.8,021.0,0000.0,0004.19,0012.77,0003.21
2024-05-05 06:12:00,SystemResetWarning,0824.8,5.00,000.00,025.1,024.4,000.0,033.7,026.9,021.0,0000.0,0004.21,0011.59,0003.21
2024-05-05 06:13:00,SystemResetWarning,0824.7,4.99,000.00,025.1,024.4,000.0,033.7,026.9,021.0,0000.0,0004.25,0011.74,0003.20
2024-05-05 06:14:00,SystemResetWarning,0824.7,5.00,000.00,025.1,024.4,000.0,033.6,026.8,021.0,0000.0,0004.29,0012.07,0003.20
2024-05-05 06:15:00,SystemResetWarning,0824.7,5.00,000.00,025.1,024.3,000.0,033.6,026.8,021.0,0000.0,0004.25,0011.32,0003.19
2024-05-05 06:16:00,SystemResetWarning,0824.7,5.00,000.00,025.1,024.3,000.0,033.6,026.8,020.9,0000.0,0004.26,0011.40,0003.18
2024-05-05 06:17:00,SystemResetWarning,0824.7,5.00,000.00,025.1,024.3,000.0,033.6,026.8,021.0,0000.0,0004.24,0010.25,0003.19
2024-05-05 06:18:00,SystemResetWarning,0824.7,5.00,000.00,025.1,024.3,000.0,033.6,026.8,021.1,0000.0,0004.22,0010.17,0003.19
2024-05-05 06:19:00,SystemResetWarning,0824.7,5.00,000.00,025.0,024.3,000.0,033.6,026.7,021.0,0000.0,0004.26,0010.70,0003.19
2024-05-05 06:20:00,SystemResetWarning,0824.7,4.99,000.00,025.0,024.3,000.0,033.6,026.7,021.0,0000.0,0004.28,0010.12,0003.18
2024-05-05 06:21:00,SystemResetWarning,0824.7,4.99,000.00,025.0,024.3,000.0,033.6,026.6,020.9,0000.0,0004.22,0010.16,0003.16
2024-05-05 06:22:00,SystemResetWarning,0824.7,5.01,000.00,025.0,024.2,000.0,033.5,026.7,020.8,0000.0,0004.22,0010.77,0003.17
2024-05-05 06:23:00,SystemResetWarning,0824.7,5.00,000.00,025.0,024.2,000.0,033.5,026.7,020.8,0000.0,0004.26,0011.54,0003.17
2024-05-05 06:24:00,SystemResetWarning,0824.7,5.01,000.00,025.0,024.2,000.0,033.5,026.7,020.8,0000.0,0004.22,0012.48,0003.17
2024-05-05 06:25:00,SystemResetWarning,0824.7,5.00,000.00,024.9,024.2,000.0,033.5,026.7,020.9,0000.0,0004.17,0012.40,0003.17
2024-05-05 06:26:00,SystemResetWarning,0824.7,5.01,000.00,024.9,024.2,000.0,033.5,026.7,020.8,0000.0,0004.17,0012.93,0003.17
2024-05-05 06:27:00,SystemResetWarning,0824.7,5.00,000.00,024.9,024.2,000.0,033.5,026.6,021.0,0000.0,0004.18,0012.94,0003.16
2024-05-05 06:28:00,SystemResetWarning,0824.7,5.00,000.00,024.9,024.2,000.0,033.5,026.7,021.2,0000.0,0004.18,0012.87,0003.15
2024-05-05 06:29:00,SystemResetWarning,0824.7,5.00,000.00,024.9,024.2,000.0,033.5,026.7,021.2,0000.0,0004.18,0013.53,0003.15
2024-05-05 06:30:00,SystemResetWarning,0824.7,5.00,000.00,024.9,024.2,000.0,033.5,026.7,021.2,0000.0,0004.18,0014.17,0003.14
2024-05-05 06:31:00,SystemResetWarning,0824.7,4.99,000.00,024.9,024.2,000.0,033.5,026.7,021.2,0000.0,0004.18,0014.42,0003.15
2024-05-05 06:32:00,SystemResetWarning,0824.7,5.00,000.00,024.9,024.2,000.0,033.5,026.7,021.1,0000.0,0004.21,0014.65,0003.16
2024-05-05 06:33:00,SystemResetWarning,0824.7,5.01,000.00,024.9,024.1,000.0,033.5,026.7,021.0,0000.0,0004.22,0014.54,0003.15
2024-05-05 06:34:00,SystemResetWarning,0824.7,5.01,000.00,024.9,024.2,000.0,033.4,026.7,021.1,0000.0,0004.20,0014.42,0003.15
2024-05-05 06:35:00,SystemResetWarning,0824.7,4.99,000.00,024.9,024.2,000.0,033.4,026.7,021.2,0000.0,0004.18,0013.18,0003.15
2024-05-05 06:36:00,SystemResetWarning,0824.6,5.01,000.00,024.9,024.2,000.0,033.4,026.8,021.2,0000.0,0004.17,0013.27,0003.14
2024-05-05 06:37:00,SystemResetWarning,0824.6,5.00,000.00,025.0,024.3,000.0,033.4,026.8,021.2,0000.0,0004.13,0013.25,0003.13
2024-05-05 06:38:00,SystemResetWarning,0824.5,5.01,000.00,025.0,024.3,000.0,033.4,026.8,021.1,0000.0,0004.09,0013.03,0003.13
2024-05-05 06:39:00,SystemResetWarning,0824.5,5.00,000.00,025.0,024.3,000.0,033.4,026.8,021.1,0000.0,0004.07,0013.01,0003.15
2024-05-05 06:40:00,SystemResetWarning,0824.5,4.99,000.00,025.0,024.4,000.0,033.4,026.9,021.1,0000.0,0004.10,0013.24,0003.15
2024-05-05 06:41:00,SystemResetWarning,0824.5,5.01,000.00,025.0,024.4,000.0,033.4,026.9,021.1,0000.0,0004.11,0013.62,0003.15
2024-05-05 06:42:00,SystemResetWarning,0824.5,4.99,000.00,025.1,024.4,000.0,033.4,026.9,021.1,0000.0,0004.12,0013.60,0003.16
2024-05-05 06:43:00,SystemResetWarning,0824.5,5.00,000.00,025.1,024.4,000.0,033.5,026.9,021.0,0000.0,0004.13,0013.67,0003.16
2024-05-05 06:44:00,SystemResetWarning,0824.5,5.00,000.00,025.1,024.5,000.0,033.5,026.9,021.0,0000.0,0004.16,0013.39,0003.17
2024-05-05 06:45:00,SystemResetWarning,0824.5,5.01,000.00,025.1,024.5,000.0,033.5,026.9,021.0,0000.0,0004.13,0013.10,0003.18
2024-05-05 06:46:00,SystemResetWarning,0824.5,5.01,000.00,025.1,024.5,000.0,033.5,026.9,020.9,0000.0,0004.13,0013.00,0003.18
2024-05-05 06:47:00,SystemResetWarning,0824.5,4.99,000.00,025.1,024.5,000.0,033.5,027.0,020.8,0000.0,0004.18,0012.89,0003.20
2024-05-05 06:48:00,SystemResetWarning,0824.5,4.99,000.00,025.2,024.6,000.0,033.5,027.0,020.8,0000.0,0004.26,0012.61,0003.23
2024-05-05 06:49:00,SystemResetWarning,0824.5,5.00,000.00,025.2,024.6,000.0,033.5,027.0,020.8,0000.0,0004.36,0013.67,0003.24
2024-05-05 06:50:00,SystemResetWarning,0824.5,5.00,000.00,025.2,024.6,000.0,033.5,027.0,020.8,0000.0,0004.36,0014.19,0003.25
2024-05-05 06:51:00,SystemResetWarning,0824.5,4.99,000.00,025.2,024.6,000.0,033.5,027.1,020.8,0000.0,0004.37,0013.71,0003.26
2024-05-05 06:52:00,SystemResetWarning,0824.5,5.02,000.00,025.2,024.6,000.0,033.6,027.1,020.8,0000.0,0004.31,0012.19,0003.26
2024-05-05 06:53:00,SystemResetWarning,0824.5,5.00,000.00,025.2,024.6,000.0,033.6,027.1,020.7,0000.0,0004.30,0011.51,0003.26
2024-05-05 06:54:00,SystemResetWarning,0824.5,4.99,000.00,025.2,024.6,000.0,033.6,027.1,020.7,0000.0,0004.29,0011.15,0003.28
2024-05-05 06:55:00,SystemResetWarning,0824.4,4.99,000.00,025.2,024.6,000.0,033.6,027.1,020.7,0000.0,0004.26,0011.07,0003.28
2024-05-05 06:56:00,SystemResetWarning,0824.4,5.00,000.00,025.2,024.6,000.0,033.6,027.1,020.7,0000.0,0004.26,0010.92,0003.28
2024-05-05 06:57:00,SystemResetWarning,0824.4,5.00,000.00,025.2,024.6,000.0,033.6,027.1,020.7,0000.0,0004.27,0011.46,0003.28
2024-05-05 06:58:00,SystemResetWarning,0824.4,5.00,000.00,025.2,024.6,000.0,033.6,027.1,020.6,0000.0,0004.27,0011.70,0003.29
2024-05-05 06:59:00,SystemResetWarning,0824.4,5.01,000.00,025.2,024.6,000.0,033.7,027.1,020.6,0000.0,0004.26,0012.65,0003.28
